Weather History for KPSX - December, 2012

Change the Weather History Date:

Sunday, December 30, 2012

  Actual Average Record
Temperature  
Mean Temperature 48 °F -  
Max Temperature 61 °F 64 °F 79 °F (1971)
Min Temperature 35 °F 45 °F 17 °F (1983)
Degree Days  
Heating Degree Days 17    
Moisture  
Dew Point 39 °F    
Average Humidity 69    
Maximum Humidity 83    
Minimum Humidity 52    
Precipitation  
Precipitation 0.00 in - - ()
Sea Level Pressure  
Sea Level Pressure 30.35 in    
Wind  
Wind Speed 9 mph (ENE)    
Max Wind Speed 17 mph    
Max Gust Speed 23 mph    
Averages and records for this station are not official NWS values.
T = Trace of Precipitation, MM = Missing Value Source: NWS Daily Summary

Daily Weather History Graph

Daily Weather History Graph

Search for Another Location

Airport or City:

Trip Planner

Search our weather history database for the weather conditions in past years. The results will help you decide how hot, cold, wet, or windy it might be!

Date:

Astronomy

Dec. 30, 2012 Rise Set
Actual Time 7:17 AM CST 5:38 PM CST
Civil Twilight 6:51 AM CST 6:04 PM CST
Nautical Twilight 6:22 AM CST 6:33 PM CST
Astronomical Twilight 5:53 AM CST 7:02 PM CST
Moon 7:57 PM CST (12/30) 8:38 AM CST (12/30)
Length of Visible Light 11h 12m
Length of Day
10h 20m
Waning Gibbous, 95% of the Moon is Illuminated
Dec 30
Waning Gibbous
Jan 4
Last Quarter
Jan 11
New
Jan 18
First Quarter
Jan 26
Full

Hourly Weather History & Observations

Time (CST) Temp. Windchill Dew Point Humidity Pressure Visibility Wind Dir Wind Speed Gust Speed Precip Events Conditions
12:53 AM 37.9 °F 34.4 °F 30.9 °F 76% 30.44 in - North 4.6 mph - N/A   Clear
1:53 AM 39.0 °F 34.8 °F 32.0 °F 76% 30.44 in - North 5.8 mph - N/A   Clear
2:53 AM 39.0 °F 35.7 °F 30.9 °F 73% 30.44 in - North 4.6 mph - N/A   Clear
3:53 AM 37.0 °F 31.6 °F 28.9 °F 73% 30.44 in - NE 6.9 mph - N/A   Clear
4:53 AM 35.1 °F 29.3 °F 28.0 °F 76% 30.44 in - NNE 6.9 mph - N/A   Clear
5:53 AM 35.1 °F 28.6 °F 28.0 °F 76% 30.43 in - NNE 8.1 mph - N/A   Clear
6:53 AM 35.1 °F 29.3 °F 28.0 °F 76% 30.44 in - NNE 6.9 mph - N/A   Clear
7:53 AM 39.0 °F 32.3 °F 30.0 °F 70% 30.44 in - NE 10.4 mph - N/A   Clear
9:53 AM 46.9 °F - 30.9 °F 54% 30.45 in - NE 12.7 mph - N/A   Clear
10:53 AM 53.1 °F - 36.0 °F 52% 30.44 in - ENE 12.7 mph - N/A   Clear
11:53 AM 57.9 °F - 41.0 °F 53% 30.40 in - East 17.3 mph - N/A   Clear
12:53 PM 61.0 °F - 43.0 °F 52% 30.36 in - East 13.8 mph - N/A   Clear
1:53 PM 61.0 °F - 44.1 °F 54% 30.32 in - East 16.1 mph - N/A   Mostly Cloudy
2:53 PM 60.1 °F - 45.0 °F 57% 30.32 in - East 16.1 mph - N/A   Overcast
4:53 PM 57.0 °F - 46.0 °F 67% 30.27 in - East 17.3 mph - N/A   Clear
5:53 PM 55.9 °F - 46.0 °F 69% 30.26 in - East 17.3 mph 23.0 mph N/A   Mostly Cloudy
6:53 PM 55.0 °F - 46.9 °F 74% 30.26 in - East 15.0 mph - N/A   Overcast
7:53 PM 55.0 °F - 46.9 °F 74% 30.24 in - East 13.8 mph - N/A   Overcast
8:53 PM 57.0 °F - 48.9 °F 74% 30.23 in - East 17.3 mph - N/A   Overcast
9:53 PM 57.9 °F - 50.0 °F 75% 30.22 in - East 10.4 mph - N/A   Overcast
10:53 PM 60.1 °F - 52.0 °F 75% 30.21 in - East 10.4 mph - N/A   Overcast
11:53 PM 60.1 °F - 55.0 °F 83% 30.18 in - East 11.5 mph - 0.00 in Rain Light Rain